Flag for U.S.A. Weather past 2 weeks in Lansing, Michigan, U.S.A.

Now
47 °F

Overcast.


Feels Like: 45 °F
Forecast: 42 / 61 °F
Wind: 5 mph from Northwest

Location: Capital City Airport

Current Time: Sep 22, 2014 at 4:59:30 AM

Latest Report: Sep 22, 2014 at 3:53 AM


Visibility: 10 mi

Pressure: 30.11 "Hg

Humidity: 71%

Dew point: 38 °F

Location of LansingLocation

Historic Weather in Lansing — Graph

°F

Lansing temperature yesterday

Maximum temperature yesterday: 66 °F (at 3:53 AM)
Minimum temperature yesterday: 48 °F (at 10:53 PM)
Average temperature yesterday: 58 °F

Past Weeks' High & Low Weather Summary

 TemperatureHumidityPressure
High78 °F (Sep 20, 2:53 PM)100% (Sep 16, 8:53 AM)30.36 "Hg (Sep 16, 8:53 AM)
Low41 °F (Sep 17, 4:53 AM)42% (Sep 7, 4:53 PM)29.53 "Hg (Sep 10, 4:53 PM)
Average57 °F77%30.08 "Hg
* Reported Sep 7 3:53 AM — Sep 22 3:53 AM, Lansing, Weather by CustomWeather, © 2014

Note: Actual official high and low records may vary slightly from our data, if they occured in-between our weather recording intervals... More about our weather records

Advertising

Lansing weather history for previous 24 hours

 ConditionsComfort  
Time TempWeatherWind HumidityBarometerVisibility
3:53 AM
Sep 22
47 °FOvercast.5 mph71%30.11 "Hg10 mi
2:53 AM47 °FOvercast.7 mph71%30.11 "Hg10 mi
1:53 AM47 °FOvercast.7 mph71%30.10 "Hg10 mi
12:53 AM47 °FOvercast.9 mph71%30.09 "Hg10 mi
11:53 PM
Sep 21
48 °FOvercast.10 mph68%30.08 "Hg10 mi
10:53 PM48 °FOvercast.16 mph66%30.06 "Hg10 mi
9:53 PM50 °FOvercast.13 mph71%30.03 "Hg10 mi
8:53 PM52 °FOvercast.18 mph75%29.99 "Hg10 mi
7:53 PM54 °FMostly cloudy.9 mph74%29.95 "Hg10 mi
6:53 PM54 °FOvercast.10 mph77%29.92 "Hg10 mi
5:53 PM56 °FMostly cloudy.18 mph75%29.88 "Hg10 mi
4:53 PM57 °FMostly cloudy.20 mph83%29.82 "Hg10 mi
3:57 PM58 °FLight rain. Fog.22 mph87%29.77 "Hg5 mi
3:02 PM58 °FLight rain. Cloudy.16 mph87%29.73 "Hg10 mi
1:53 PM60 °FLight rain. Mostly cloudy.16 mph83%29.70 "Hg6 mi
12:53 PM62 °FMore clouds than sun.16 mph67%29.68 "Hg10 mi
12:00 PM60 °FBroken clouds.15 mph78%29.69 "Hg10 mi
10:53 AM60 °FMore clouds than sun.17 mph72%29.69 "Hg10 mi
9:53 AM60 °FCloudy.14 mph80%29.68 "Hg10 mi
8:53 AM59 °FMore clouds than sun.15 mph84%29.67 "Hg10 mi
7:53 AM59 °FMostly cloudy.12 mph90%29.65 "Hg10 mi
6:53 AM60 °FPassing clouds.13 mph90%29.63 "Hg10 mi
4:53 AM63 °FLight rain. Mostly cloudy.7 mph93%29.60 "Hg10 mi
4:03 AM64 °FHeavy rain. Fog.17 mph94%29.64 "Hg2 mi
Weather by CustomWeather, © 2014

See weather overviewHow to use our weather pages